STARLINK-2373, 47796

Orbit data source: Space-Track

STARLINK-2373, 47796 is a payload satellite owned by SpaceX/Seattle (US) in LEO that was launched on Thu, 11 Mar 2021 UTC via an FALCON 9 launch vehicle from the Air Force Eastern Test Range (AFETR). Payload-class satellites include a variety of spacecraft equipped with specific instruments for various scientific and technological missions. These include communications satellites like Starlink; space stations such as the ISS; scientific satellites like the Hubble; Earth observation satellites from companies like Planet Labs, Umbra, and HawkEye 360; GPS; miniature CubeSats for education and research; and military/defense satellites.

Loading next visibility...
Identifier
47796, 2021-018K
Orbit
LEO
Country
Flag of USUS
Related business
Manufacturer
SpaceX/Seattle
Mission
Operational Commercial Communications
Bus & Motor
STARLINK, Unknown motor
Mass
260 kg wet, ~248 kg dry
Launch date (UTC)
2021-03-11 (5 years ago)
Launch vehicle
FALCON 9
Launch site
Air Force Eastern Test Range (AFETR)
Object type
Payload
Rocket body
Debris
Shape & HBR
Box + 1 Pan, 10.1 m
Radar Cross Section
13.562 m², Large (>1 m²)

Expand to show TLE details & history
Last TLE update: 18 hours ago

TLE from 18 hours ago
0 STARLINK-2373
1 47796U 21018K   25292.00777628  .00003603  00000-0  26059-3 0  9999
2 47796  53.0539 147.6537 0001627  91.8704 268.2472 15.06405086255523
Epoch: 2025-10-19T00:11Z
TLE epoch observation values (Epoch: 2025-10-19T00:11:11.870Z)
Latitude
0.00003°
Longitude
117.12364°
Altitude
548.11 km
Speed
7.589 km/s
True Right ascension
09h 50m 36s
True Declination
0° 00' 00"
Sunlit
Object was in daylight at epoch
Visualization orbit readout
Latitude
Unknown
Longitude
Unknown
Altitude
Unknown
Speed
Unknown
Apparent Right ascension
Unknown
Apparent Declination
Unknown
Sunlit
N/A
Visualization observer readout
Local Sidereal Time
13:34:12
Azimuth
Unknown
Elevation
Unknown
Doppler factor
Unknown
Orbital elements
Apogee altitude
548.594 km
Perigee altitude
546.34 km
Semi-major axis
6,925.604 km
Eccentricity
0.00016
Inclination
53.0539°
RAAN
147.6537°
Arg. of periapsis
91.8704°
True anomaly
268.22856°
Mean anomaly
268.2472°
Eccentric anomaly
268.23788°
Mean motion
3.7658 °/min
Orbital period
95.6 mins
BSTAR
0.00026059
Loading maneuver chart data...
Computing Atmospheric mass density...
Loading historical data...
Loading historical data...
Loading historical data...
Loading historical data...
Loading historical data...
Loading historical data...
Loading historical data...

Documentation

Showing up to 5 results
|